Home > Weather > Catania > Past weeks

Flag for Italy Weather for the Past 2 Weeks in Catania, Italy

Now
57 °F

Passing clouds.


Feels Like: 55 °F
Forecast: 39 / 56 °F
Wind: 9 mph from Southeast

Location: Catania / Fontanarossa

Current Time: Feb 6, 2016 at 3:31:06 PM

Latest Report: Feb 6, 2016 at 2:50 PM


Visibility: N/A

Pressure: 30.39 "Hg

Humidity: 51%

Dew point: 39 °F

Location of CataniaLocation

Historic Weather in Catania — Graph

°F

Catania Temperature Yesterday

Maximum temperature yesterday: 63 °F (at 1:50 PM)
Minimum temperature yesterday: 39 °F (at 11:50 PM)
Average temperature yesterday: 52 °F

High & Low Weather Summary for the Past Weeks

 TemperatureHumidityPressure
High66 °F (Jan 31, 1:50 PM)100% (Jan 23, 6:50 AM)30.57 "Hg (Jan 23, 6:50 AM)
Low32 °F (Jan 26, 4:50 AM)20% (Feb 5, 2:50 PM)30.04 "Hg (Feb 4, 4:20 AM)
Average49 °F73%30.36 "Hg
* Reported Jan 22 2:20 PM — Feb 6 2:20 PM, Catania, Weather by CustomWeather, © 2016

Note: Actual official high and low records may vary slightly from our data, if they occured in-between our weather recording intervals... More about our weather records

Advertising

Catania Weather History for the Previous 24 Hours

 ConditionsComfort  
Time TempWeatherWind HumidityBarometerVisibility
2:20 PM
Sat, Feb 6
57 °FPassing clouds.9 mph48%30.39 "HgN/A
1:50 PM57 °FPassing clouds.9 mph44%30.39 "HgN/A
1:20 PM57 °FPassing clouds.8 mph44%30.42 "HgN/A
12:50 PM59 °FSunny.3 mph31%30.42 "Hg10 mi
12:20 PM59 °FSunny.5 mph31%30.45 "Hg10 mi
11:50 AM57 °FSunny.2 mph36%30.45 "Hg10 mi
10:50 AM55 °FPassing clouds.3 mph41%30.48 "HgN/A
10:20 AM52 °FSunny.6 mph54%30.51 "Hg10 mi
9:50 AM48 °FSunny.7 mph66%30.48 "Hg10 mi
9:20 AM45 °FSunny.8 mph71%30.48 "Hg10 mi
8:50 AM41 °FSunny.6 mph76%30.48 "Hg10 mi
8:20 AM37 °FSunny.6 mph81%30.48 "Hg10 mi
7:50 AM34 °FSunny.8 mph87%30.48 "Hg10 mi
7:20 AM32 °FSunny.7 mph87%30.45 "Hg10 mi
6:50 AM34 °FPassing clouds.5 mph87%30.45 "HgN/A
6:20 AM36 °FPassing clouds.5 mph81%30.45 "HgN/A
5:50 AM36 °FClear.8 mph81%30.42 "Hg10 mi
4:20 AM41 °FClear.6 mph76%30.42 "Hg10 mi
3:50 AM41 °FClear.8 mph76%30.42 "Hg10 mi
2:50 AM37 °FClear.2 mph81%30.39 "Hg10 mi
1:50 AM39 °FClear.3 mph75%30.39 "Hg10 mi
1:20 AM45 °FClear.6 mph66%30.39 "Hg10 mi
12:50 AM43 °FPassing clouds.6 mph71%30.39 "HgN/A
12:20 AM43 °FClear.3 mph71%30.39 "Hg10 mi
11:50 PM
Fri, Feb 5
39 °FClear.7 mph75%30.39 "Hg10 mi
11:20 PM41 °FClear.6 mph76%30.39 "Hg10 mi
10:50 PM43 °FClear.6 mph71%30.39 "Hg10 mi
10:20 PM45 °FClear.2 mph66%30.36 "Hg10 mi
9:50 PM46 °FClear.6 mph62%30.36 "Hg10 mi
9:20 PM48 °FClear.6 mph58%30.36 "Hg10 mi
8:50 PM46 °FClear.9 mph62%30.33 "Hg10 mi
8:20 PM50 °FClear.9 mph54%30.33 "Hg10 mi
7:50 PM50 °FClear.8 mph54%30.33 "Hg10 mi
7:20 PM50 °FClear.7 mph50%30.33 "Hg10 mi
6:50 PM55 °FPassing clouds.5 mph36%30.33 "HgN/A
6:20 PM52 °FPassing clouds.3 mph44%30.30 "HgN/A
5:50 PM54 °FPassing clouds.9 mph41%30.27 "HgN/A
5:20 PM55 °FPassing clouds.14 mph38%30.27 "HgN/A
4:50 PM57 °FSunny.16 mph36%30.24 "Hg10 mi
4:20 PM59 °FSunny.13 mph34%30.24 "Hg10 mi
3:50 PM61 °FPassing clouds.5 mph34%30.24 "HgN/A
3:20 PM61 °FPassing clouds.9 mph29%30.24 "HgN/A
Weather by CustomWeather, © 2016

See weather overviewHow to use our weather pages